Calgary, Alberta

9:43 PM MDT on July 27, 2017 (GMT -0600)
Calgary International

Weather History for CYYC - July, 2013

Change the Weather History Date:

Saturday, July 27, 2013

  Actual Average Record
Temperature  
Mean Temperature 59 °F -  
Max Temperature 66 °F 73 °F 89 °F (2007)
Min Temperature 52 °F 47 °F 43 °F (2015)
Degree Days  
Heating Degree Days 6    
Growing Degree Days 9 (Base 50)    
Moisture  
Dew Point 49 °F    
Average Humidity 70    
Maximum Humidity 100    
Minimum Humidity 34    
Precipitation  
Precipitation 0.00 in 0.07 in - ()
Sea Level Pressure  
Sea Level Pressure 29.98 in    
Wind  
Wind Speed 13 mph ()    
Max Wind Speed 30 mph    
Max Gust Speed 44 mph    
Visibility 16.2 miles    
Events      
Averages and records for this station are not official NWS values.
T = Trace of Precipitation, MM = Missing Value Source: Averaged Metar Reports

Daily Weather History Graph

Daily Weather History Graph

Search for Another Location

Airport or City:

Trip Planner

Search our weather history database for the weather conditions in past years. The results will help you decide how hot, cold, wet, or windy it might be!

Date:

Astronomy

Jul. 27, 2013 Rise Set
Actual Time 5:54 AM MDT 9:29 PM MDT
Civil Twilight 5:13 AM MDT 10:10 PM MDT
Nautical Twilight 4:17 AM MDT 11:06 PM MDT
Astronomical Twilight 2:54 AM MDT 12:26 AM MDT
Moon 11:29 PM MDT (7/27) 12:26 PM MDT (7/27)
Length of Visible Light 16h 57m
Length of Day
15h 35m
Waning Gibbous, 70% of the Moon is Illuminated
Jul 27
Waning Gibbous
Jul 29
Last Quarter
Aug 6
New
Aug 14
First Quarter
Aug 20
Full

Hourly Weather History & Observations

Time (MDT) Temp. Dew Point Humidity Pressure Visibility Wind Dir Wind Speed Gust Speed Precip Events Conditions
12:00 AM 62 °F 57 °F 78% 29.94 in 15 mi South 10.4 mph - -  
12:00 AM 62.6 °F 57.2 °F 82% 29.94 in 15.0 mi South 10.4 mph - N/A   Clear
1:00 AM 59.0 °F 55.4 °F 88% 29.94 in 15.0 mi South 6.9 mph - N/A   Clear
2:00 AM 57.2 °F 53.6 °F 88% 29.91 in 15.0 mi East 5.8 mph - N/A   Clear
3:00 AM 57.2 °F 53.6 °F 88% 29.90 in 15.0 mi WNW 3.5 mph - N/A   Clear
4:00 AM 55.4 °F 53.6 °F 94% 29.94 in 15.0 mi NNW 9.2 mph - N/A   Mostly Cloudy
4:12 AM 57.2 °F 57.2 °F 100% 29.94 in 12.0 mi NNW 21.9 mph 28.8 mph N/A   Mostly Cloudy
4:21 AM 59.0 °F 57.2 °F 94% 29.94 in 10.0 mi NNW 26.5 mph 41.4 mph N/A   Overcast
4:43 AM 59.0 °F 53.6 °F 82% 29.95 in 15.0 mi NNW 29.9 mph 43.7 mph N/A   Mostly Cloudy
5:00 AM 57.2 °F 50.0 °F 77% 29.96 in 15.0 mi NNW 27.6 mph 36.8 mph N/A   Mostly Cloudy
5:06 AM 55.4 °F 50.0 °F 82% 29.96 in 15.0 mi NNW 24.2 mph 35.7 mph N/A   Partly Cloudy
6:00 AM 54 °F 48 °F 74% 30.00 in 15 mi NNW 19.6 mph - -   Scattered Clouds
6:00 AM 53.6 °F 48.2 °F 82% 30.00 in 15.0 mi NNW 21.9 mph 29.9 mph N/A   Partly Cloudy
7:00 AM 53.6 °F 48.2 °F 82% 30.01 in 15.0 mi NNW 18.4 mph 26.5 mph N/A   Partly Cloudy
8:00 AM 55.4 °F 48.2 °F 77% 30.02 in 20.0 mi NNW 15.0 mph 21.9 mph N/A   Partly Cloudy
9:00 AM 57.2 °F 48.2 °F 72% 30.02 in 20.0 mi NNW 13.8 mph - N/A   Partly Cloudy
10:00 AM 59.0 °F 48.2 °F 67% 30.00 in 30.0 mi NW 13.8 mph 19.6 mph N/A   Partly Cloudy
11:00 AM 62.6 °F 48.2 °F 59% 29.99 in 30.0 mi NW 13.8 mph 21.9 mph N/A   Partly Cloudy
12:00 PM 65 °F 47 °F 41% 29.99 in 28 mi NNW 17.3 mph - -   Scattered Clouds
12:00 PM 64.4 °F 46.4 °F 52% 29.99 in 30.0 mi NW 21.9 mph 27.6 mph N/A   Partly Cloudy
1:00 PM 64.4 °F 48.2 °F 56% 30.02 in 30.0 mi NNW 29.9 mph 40.3 mph N/A   Mostly Cloudy
2:00 PM 59.0 °F 44.6 °F 59% 30.04 in 20.0 mi NNW 28.8 mph 39.1 mph N/A   Scattered Clouds
3:00 PM 57.2 °F 42.8 °F 59% 30.04 in 30.0 mi NNW 20.7 mph 29.9 mph N/A   Mostly Cloudy
4:00 PM 59.0 °F 44.6 °F 59% 30.03 in 30.0 mi NNW 10.4 mph 19.6 mph N/A   Scattered Clouds
5:00 PM 64.4 °F 46.4 °F 52% 29.99 in 20.0 mi NNW 9.2 mph - N/A   Partly Cloudy
6:00 PM 65 °F 44 °F 34% 30.00 in 19 mi NNW 5.8 mph - -   Scattered Clouds
6:00 PM 64.4 °F 42.8 °F 45% 29.99 in 20.0 mi North 4.6 mph - N/A   Partly Cloudy
7:00 PM 62.6 °F 46.4 °F 55% 30.00 in 20.0 mi NE 6.9 mph - N/A   Partly Cloudy
8:00 PM 60.8 °F 46.4 °F 59% 30.01 in 20.0 mi NE 9.2 mph - N/A   Partly Cloudy
9:00 PM 57.2 °F 46.4 °F 67% 30.01 in 15.0 mi NE 8.1 mph - N/A   Scattered Clouds
10:00 PM 57.2 °F 48.2 °F 72% 30.02 in 15.0 mi NE 4.6 mph - N/A   Overcast
11:00 PM 57.2 °F 46.4 °F 67% 30.03 in 15.0 mi NE 6.9 mph - N/A   Overcast